CAPE
474 520 484 488 402 493 556 497 413 349 443 649 304 585 789 37 893 883 886 794 1669 1159 1552 1243 1423 1270 750 411 47 142 930 698 646 424 1766 2482 3283 3322 3661 3643 4234 4080 3921 3554 3379 3346 3008 2552 1906 2404 2534 2721 2296 2530 2528 2452 2795 2995 2999 3376 2635 2921 1352 1508 1047 945 1367 1101 2190 898 1083 995 1021 1190 817 799 657 588 514 992 890 893 1152 1487 1760
500 574 572 515 458 510 438 554 486 409 622 652 296 509 512 0 760 878 945 944 1820 1582 1943 1368 1680 1142 917 467 64 202 727 1020 986 542 797 2515 3429 3401 3399 3863 4120 3952 4093 4267 3872 3382 2362 2115 1614 2035 2905 2602 2932 2471 2005 2785 3200 2764 2804 2946 2918 2798 1620 735 697 793 1176 1041 928 1094 1141 1242 1058 744 540 372 406 469 498 645 370 400 544 894 1239
513 399 531 506 591 445 438 575 439 393 428 587 400 605 835 70 959 790 946 1152 1663 1932 2190 1559 1494 1259 753 478 273 159 232 348 190 212 552 1740 2536 2979 2905 3780 3814 4126 4155 4093 3390 3351 2908 3053 2592 3357 3434 3175 3351 3348 3206 2676 3252 2807 3068 3740 3188 2787 1585 990 1219 1068 1219 717 1448 1283 919 752 1053 1785 473 348 234 318 350 450 377 343 465 896 1220
964 458 433 572 632 455 482 535 687 504 691 548 376 784 675 642 1296 1086 1072 1347 1410 2050 2050 1538 1470 1435 1375 1227 669 127 152 468 649 458 265 1452 1828 2237 3237 3651 3447 3366 3553 3529 3033 3315 3532 3926 3754 3762 4121 4053 3674 3427 3523 3473 3342 3000 2616 2513 2679 2826 389 632 708 758 1561 700 1160 962 868 860 865 1222 796 824 268 227 223 31 170 388 520 688 1602
909 711 578 434 640 514 814 920 538 543 611 592 509 594 482 910 1494 1653 1305 1580 1458 2249 2005 1835 1804 1777 1573 1606 887 1679 462 445 412 281 18 838 1344 1956 2496 3377 3576 3195 3062 3208 2959 3305 3321 3732 3978 3973 4019 3735 3388 3457 4495 3363 3243 2808 3246 2923 3182 2501 512 563 850 419 882 1439 2806 1278 1572 1056 1148 764 284 731 406 103 123 157 330 380 395 644 1118
842 553 393 410 517 553 1052 1004 617 515 543 671 699 717 790 998 1546 2013 1592 1854 1706 2451 2132 1866 1914 1813 1556 1502 778 950 1329 478 672 484 15 46 632 1008 1973 2394 2972 2973 3444 3405 3211 3292 3631 3686 3582 3492 4064 4107 4096 3962 3464 3287 2655 2812 3364 3281 2739 3013 3301 686 552 1386 487 1302 1130 1486 1803 1203 542 853 359 1451 1410 305 342 230 158 277 358 1272 1306
1043 574 497 587 577 642 893 915 745 602 675 720 826 1089 1006 1389 1674 1987 1909 2048 2145 2537 2206 2005 1725 1940 1481 1014 826 548 1989 845 917 243 334 90 130 1387 1978 2053 3115 2839 2837 3318 3326 3366 3650 3690 3677 3736 4046 4035 3814 4028 2788 2735 2642 2517 2780 2642 3377 3164 2975 3898 1026 691 1068 937 678 519 760 649 889 1540 1236 970 1555 1875 831 250 204 236 407 769 875
1147 956 705 493 506 692 699 836 845 756 696 776 872 962 1350 1764 1781 2011 2298 2189 2389 2662 2534 1906 1732 1862 1603 897 874 562 485 1662 1446 1436 1253 781 422 639 1536 1753 2595 2859 2902 3589 3741 3495 3660 3791 3857 3599 3682 3449 3769 4074 3326 3168 3011 2836 3381 3452 3790 4383 3234 3169 1873 757 1443 1283 744 1026 456 29 457 160 838 1317 1832 1606 1470 272 86 4 458 354 582
776 947 812 561 459 865 919 877 944 825 739 804 873 1473 1668 2136 2156 2197 2414 2327 2637 2909 2488 1943 1820 2106 1695 1217 1375 892 706 1677 1600 1185 1066 1169 956 1019 1661 1704 2850 2853 3258 3337 3569 3679 3720 3806 3921 3840 3549 3406 4105 3225 2837 2245 2661 3762 4053 4231 4527 4172 3776 3509 2769 3613 1733 1340 2084 980 1029 880 230 206 162 1119 952 1495 848 620 200 27 154 148 221
1066 852 756 718 866 699 731 929 1079 949 862 1282 956 1160 1465 2212 2606 2346 2532 2346 2621 2939 2498 2014 2178 2229 1869 1256 1448 1248 1036 1233 1219 1215 1665 1406 1939 1210 1905 2640 2314 2657 2722 3310 3915 3810 3682 3659 3569 3477 3355 2304 2889 2173 2356 2495 2994 3801 3757 3568 3768 3540 3920 2870 2687 2903 1436 1309 794 1523 2134 1617 2014 1168 180 565 201 851 1343 1103 505 583 1244 450 485
1284 983 848 1191 867 672 700 946 1420 1194 973 950 898 1214 1254 1949 2718 2560 2688 2201 2459 2955 2544 2234 2300 2205 2010 1414 1330 1387 1132 1338 1212 1655 1263 1868 1726 1510 1709 2800 2409 2544 2163 2919 3551 3265 3478 3538 2834 3096 3044 3276 3137 2792 2801 2303 2568 3134 3075 3814 3597 4050 3751 3363 2627 1670 2788 2436 1213 2275 2582 1380 1806 1422 788 910 877 676 1298 738 435 486 242 548 699
1316 1257 1261 1082 867 849 794 1237 1469 1804 1557 1098 1028 1126 1607 1948 2671 2736 2820 2241 2282 2946 2624 2160 2175 2266 2025 1631 1505 1387 1124 768 1192 1778 1046 1314 1261 1978 1633 2403 2580 2746 2929 2695 2411 2430 3463 3606 3326 3112 3525 3514 3172 2907 2743 2343 2141 2552 3389 3858 3896 3802 3802 4344 2944 2153 1497 1320 1714 906 1227 1035 592 1001 880 2010 1112 1230 679 902 1092 1741 400 796 846
1813 1888 1698 1684 1386 1639 1112 1553 1889 1861 1443 1416 1320 1044 1262 2026 2681 2736 2902 2435 2446 2962 2547 2386 2293 2322 2114 1743 1594 1529 1235 874 948 1768 1444 1392 1206 1747 2370 2320 2585 3080 2816 2583 2339 2449 3262 3799 3546 3638 3932 3600 3488 3456 3162 2735 3083 2768 3578 3243 3658 3749 4107 3770 3782 3029 2205 1877 1081 480 224 580 592 377 892 321 826 2192 1152 1113 823 874 2633 825 1469
1685 1596 1731 1665 1666 1440 1399 1762 2067 2169 2097 1789 1258 1466 1681 1506 2541 2718 2936 2561 2476 3210 2810 2597 2294 2275 2224 1982 1676 1640 1543 960 1072 1024 1898 1783 1855 1594 1320 1613 2515 2364 2287 2394 2232 2115 2582 3450 3761 3729 4076 3962 3814 3802 3576 2885 2973 3342 2992 3112 2743 3817 3703 3779 3822 2909 2905 2442 1862 2127 632 581 612 377 80 103 882 1302 877 828 1656 2158 790 1172 1798
1676 1481 1521 1954 2018 1847 1686 1751 1890 2015 1348 1357 1112 1659 1914 2132 2735 2874 2921 2731 2614 3101 2980 2426 2156 2418 2318 2142 1955 1731 1587 1293 1202 750 1350 2163 1803 1816 1795 1298 1861 1761 1966 2447 2602 2759 2636 3136 3660 3511 3732 4142 3923 3861 3425 3676 3390 3322 3497 2830 3138 3922 3744 3748 3712 2951 2428 2258 2084 2379 2159 1459 1595 1270 653 346 789 560 1207 2301 2256 2083 1532 1397 1454
1502 1823 1810 1693 1991 1992 1672 2135 2260 2253 2116 1502 1548 1857 1949 2259 2882 3047 3174 2940 2926 3166 2933 2827 2244 2393 2504 2348 2199 2016 1835 1473 1438 1355 1596 2304 2400 2156 2348 2053 1629 2296 2098 2597 2362 3152 2652 3233 3530 3337 3766 3690 4051 3982 3928 3487 3773 3769 3667 3628 3321 2256 3483 3475 3751 3070 2510 2543 2356 2471 2608 1689 2192 857 884 893 765 1398 2235 2479 3079 1941 1414 1719 2409
1554 1588 1432 1734 1405 1483 1478 2074 1626 1943 1775 1931 1959 2040 2060 2379 2908 3330 3378 2965 3110 3188 3114 2889 2583 2499 2609 2441 2422 2427 2168 1613 1457 1614 649 1719 2682 2724 2571 1981 1902 2687 2198 2266 2214 2810 2790 2837 2920 2938 3770 3764 3861 4084 3869 3931 4068 3832 3628 3902 3416 2655 3249 3528 3603 3311 3477 2146 2431 2393 3115 2846 2915 3393 2665 2266 3036 1965 2663 3088 2816 2638 4139 2410 1741
982 1082 1640 2104 2266 2314 1954 2392 2390 2497 2280 1939 1867 2292 2238 2458 2753 3183 3397 3398 3038 2950 3220 3164 2820 2610 2576 2698 2635 2385 2004 1491 1371 1498 1055 1414 2479 2783 2236 2169 1626 1746 2073 1420 2095 2564 2964 2985 3091 3330 3356 3358 3425 3471 3827 3784 3924 3786 3785 4042 3640 3823 3564 3744 3607 3347 3198 3241 2667 2623 2693 2758 2924 2455 2554 1674 4437 3116 2404 1819 2059 2395 2564 2002 2456
528 840 2087 2144 2087 1960 2450 2090 1974 2131 2061 1956 1910 2045 2119 2434 2660 2946 3421 3209 2977 2950 3114 3186 2964 2414 2572 2654 2607 2716 2337 2034 1818 1858 1501 1490 1459 2365 2064 2051 1752 1511 2164 2442 2485 2499 2851 2800 3337 3367 3478 3507 3598 3464 3887 3800 3744 3840 3531 3688 3721 3959 3828 3703 3935 3574 3160 3339 3569 3251 4043 3474 3611 2870 2886 2434 2652 3204 3153 3667 3354 3445 2991 2399 2084
1296 1464 1562 1576 1703 1994 1735 1701 1609 1812 2089 2097 2336 2155 2391 1814 2426 2931 3207 3384 3382 2799 3179 3072 2843 2468 2679 2936 2868 2694 2899 2502 2276 2522 2216 1718 1768 1992 2098 1848 2102 1651 1674 2841 2455 2465 2497 2710 2899 2807 2652 2746 3152 3004 3400 3671 3664 3622 3249 2850 3226 3777 3559 3777 3304 3296 2934 3402 3602 3559 3735 3876 3724 3518 3521 3306 4058 3719 3785 3904 3702 3405 3425 3223 3130
1111 996 979 1176 1402 1617 2098 2030 1944 1920 1993 2240 1742 1663 2088 1740 2155 2872 3469 3223 3408 3075 2748 3094 2942 2848 3191 3229 2726 2942 2637 2641 2042 2480 2486 2155 2019 2113 2095 1952 2215 2006 1538 1793 2530 2490 2644 2729 2545 2852 2518 2486 3037 2998 3046 3420 3546 3823 3924 3532 3357 3664 3656 3776 4040 3889 2982 3146 3763 3661 3901 3956 3942 3827 3845 3523 3114 3621 3823 3896 4202 4378 4154 3891 3503
1308 1320 1224 1093 1257 1500 1671 1535 1616 1881 2424 2158 1865 1634 1574 1892 1938 2512 3140 3179 3144 3151 3284 3328 3295 2688 2704 2947 2450 2563 2598 2546 1976 1916 2353 2680 2246 2262 2586 2453 2084 2484 2136 1490 2232 2411 2992 2903 2802 2821 2531 2715 3382 3336 2756 3232 3499 3703 3630 2949 3160 3970 3656 3728 3962 4000 3836 3326 3461 3914 3841 3835 4227 3928 3647 3385 3396 2924 3236 3159 3791 3617 3793 4191 4211
1120 1296 1357 1518 1374 1246 1437 1781 2155 1931 2412 1835 1905 1919 1699 1851 2002 2064 2914 3196 3201 3199 3104 3520 3296 2895 3052 3007 3088 2680 2532 2491 1888 1861 1974 2036 2247 2208 2667 2669 1986 1882 2442 1811 1985 2019 2622 2956 2784 2809 2866 2717 3466 3322 2939 3067 3372 3591 3536 3033 2659 3155 3570 3550 3674 3833 3654 3572 3675 3748 3611 3766 3597 3639 3754 3532 3225 3232 2886 3004 3347 3546 3678 3604 4317
953 1060 706 924 773 1347 1703 2255 1820 1673 1679 2263 1940 1912 1919 1895 1888 2078 2852 3138 3186 3117 3016 3314 3306 2772 2874 3317 3045 3125 2435 2243 2358 1772 1826 1995 2192 1929 2558 2605 2098 1782 2193 2171 2044 2104 2687 3070 2960 3200 2979 2601 3268 3034 2912 3016 3287 3428 3469 3535 3271 3061 3190 3447 3499 3509 3456 3632 3598 3663 3482 3317 3530 3492 3774 3648 3662 3645 3623 3763 3343 3649 4567 4412 4256
928 1372 922 1114 1278 1398 1846 1919 2004 1570 1447 1839 2219 1819 1649 1724 1843 2120 2753 3122 3204 3135 3002 3155 3103 2827 2824 3047 2741 2635 2461 2188 1861 1594 1893 1966 2144 2167 2164 2087 1854 1658 2012 1987 2321 2464 2901 3352 3020 3169 2987 2688 3197 2932 2841 2589 2942 3143 3418 3366 3338 3339 3209 3352 3463 3576 3757 3548 3563 3542 3516 3408 3482 3413 3499 3413 3233 3634 3594 3209 3489 3696 3857 3879 3675
52 1004 2139 2251 2219 1924 2077 1967 1952 1706 1276 1698 1948 2176 1980 1949 1900 2074 2399 2817 3195 3118 3047 3254 3187 3038 2865 2729 2472 2100 2182 2172 1842 1792 1980 1994 1959 2214 2102 2247 2046 1947 1954 1928 2450 2613 2832 3322 3053 3006 3134 2747 2868 2997 2931 2724 2540 2756 3212 3184 3259 3272 3041 3268 3436 3545 3721 3661 3526 3583 3487 3680 3410 3295 3216 3126 3404 3462 3811 3803 3536 3774 4101 4169 4164
196 576 1653 1374 1755 2155 2524 2306 1893 1503 1652 1762 2065 1983 1878 1776 1806 1950 2452 2591 3097 3116 3522 3300 3169 2780 2580 2467 2269 2375 2633 2486 2093 1826 1856 2227 1950 2023 2096 1974 2079 2010 1700 1848 2126 2707 2859 3226 3200 3099 3064 3068 2890 2881 3199 3161 2813 2677 2887 3073 2977 3179 2988 3083 3213 3275 3253 3411 3371 3381 3591 3610 3611 3536 3296 3298 3754 3967 3756 3602 3920 4169 3915 3897 4273
727 384 1567 1892 2127 2203 2291 2502 2081 1837 1185 1375 2134 1771 1862 2009 1865 2607 2407 2724 2991 2976 3482 3576 3410 3010 2871 2713 2596 2458 2607 2578 2349 2251 2240 2291 2236 2248 2395 2325 2373 2344 1722 1680 2027 2471 3157 3154 3275 3156 3073 3260 3333 3141 3407 3576 3326 2904 2810 3075 3130 3168 3006 3026 2951 3200 3172 3044 3120 3056 2833 3253 3476 3624 3516 3439 3566 3802 4049 3745 3882 3982 4315 4588 4418
985 1410 2008 2502 1929 2572 2919 2414 2282 1543 1333 1374 1907 2030 2281 2573 2576 2836 2248 2706 3277 3378 3322 3321 3474 3240 3005 2740 2770 2799 2870 2985 2612 2490 2534 2484 2373 2234 2248 2508 2631 2411 2042 1643 1804 2183 2540 2768 3106 3127 3073 3076 3281 3249 3322 3713 3651 3286 2829 2758 2953 2969 3061 3019 2962 2801 3165 3240 2877 2625 2548 2447 2991 3654 3405 3327 3155 3339 3519 3773 4068 4284 4612 4867 4761
576 858 1006 2010 1974 1722 3756 3443 2858 1966 1856 1648 2219 2690 2610 2320 2595 2568 2494 2552 3446 3362 3368 3359 3334 3281 3130 3099 3303 3048 3015 3055 2884 2816 2817 2652 2576 2529 2349 2492 2777 2618 2514 2166 1710 2264 2464 2640 2942 3554 3517 3191 3091 3072 3132 3207 3243 3189 2889 2356 2810 2973 2799 2788 3067 3010 2912 3097 2824 2420 2004 2714 2844 3438 2849 2683 2678 2721 3090 3610 4299 5028 4932 4706 4744
385 900 565 1013 1249 1659 2514 2570 2810 3044 2455 2735 2745 2866 2552 2287 2371 2357 3025 2480 2763 3429 3344 3379 3482 3293 3435 3496 3609 3307 3195 3254 3200 3099 2980 2867 2821 2692 2622 2645 2960 2745 2675 2792 2283 2191 2412 2583 2635 3097 3545 3198 2839 2914 3229 3111 3158 2890 2802 2699 2862 3270 3264 3062 3089 3220 2977 2709 2690 2650 2290 2557 3438 3863 3557 2441 2438 2551 2615 2757 2914 3272 4574 5818 5235
819 961 969 680 1050 2255 1774 1807 1474 1436 1832 2037 2560 2905 2725 2037 2228 2283 2472 2433 2412 3144 2945 3219 3600 3624 3823 3749 3640 3474 3350 3429 3351 3329 3154 3061 3030 2937 2785 2794 2882 2801 2853 2884 2693 2303 2276 2703 2805 2960 3239 3388 3487 3001 3109 3198 3282 3118 2762 2869 2768 3140 3245 3304 3199 2824 2972 2779 2592 2356 2319 1972 2008 2848 4113 3677 2518 2463 2605 2636 2661 2695 2755 2746 2756
376 464 515 700 1255 1362 1832 2558 2648 1271 1143 1251 1204 1791 2288 2317 2517 2222 2284 2260 2366 2537 2809 3436 3460 3788 4035 3924 3849 3715 3608 3564 3544 3499 3327 3160 3211 3122 2940 2739 2803 2914 3009 2891 2710 2526 2403 2531 2966 3216 3112 3572 3589 2908 2926 3006 3251 3258 2982 2746 2579 2370 2453 2943 3012 3025 2755 2771 2634 2478 2162 1952 1673 2606 3108 4099 3896 3131 2603 2708 2780 2756 2734 2711 2562
253 327 456 748 1058 1204 950 1464 2406 2693 2130 2131 2141 1013 1682 1920 1806 2467 2527 2531 2618 2896 3062 3409 3684 4057 4269 4213 4064 3938 3748 3681 3695 3746 3568 3297 3155 3264 2907 2702 2478 2820 3054 3013 2874 2702 2567 2611 2747 3330 3384 3303 3328 2875 2704 2971 3050 3123 3032 2920 3006 2572 2326 2364 2916 3220 3017 2866 3049 2949 2823 2622 2328 2478 3287 3064 4372 4242 3829 3109 2785 2864 2852 2837 2744
86 123 202 448 680 876 1308 1278 1668 1887 2642 2842 2510 1056 997 1507 2235 1507 2222 3019 3158 3492 3581 3587 3899 4272 4569 4438 4298 4136 3980 3877 3870 3933 3824 3493 3296 3300 3087 2657 2201 2493 3063 3277 3016 2717 2757 2772 2633 3051 3323 2951 2876 2876 2651 2692 2920 3026 3072 2942 3275 3024 2535 2371 2675 3064 3286 3028 3096 3262 3310 3212 2981 2687 2901 3972 3727 4541 5079 4834 3919 3531 3339 3207 3200
1 23 67 255 345 616 839 1031 1583 1633 1925 1981 2205 1936 804 638 1112 1292 1519 2216 3399 3983 3985 3790 4149 4442 4630 4546 4403 4287 4234 4165 4069 4047 3996 3738 3469 3463 3331 2775 2236 2070 2738 3328 3437 2882 2942 2930 2727 2606 2692 2894 2289 2679 2541 2439 2707 2893 2967 2873 3044 3220 2847 2780 2834 2907 3151 3469 3430 3444 3424 3364 3164 3255 3127 2618 3226 3872 4223 4825 5261 4855 4439 4061 3738
26 0 2 47 177 448 651 1133 1289 1466 1902 1105 1721 1487 1365 750 846 1076 952 2139 2692 3861 4342 4045 4131 4446 4622 4563 4315 4316 4424 4368 4281 4176 4115 3874 3638 3602 3501 3153 2685 2350 2316 2844 3254 2860 3045 2869 2864 2870 2732 2938 2964 2528 2480 2363 2374 2710 2818 2754 3019 3051 2944 2777 2918 3402 3421 3491 3718 3716 3873 3709 3583 3670 3638 3124 2565 3196 4126 4405 4442 4476 4722 4720 4711
0 0 0 15 93 215 523 849 1238 1776 2061 2373 2456 1687 1506 1433 939 936 1241 2159 2448 2985 4377 4187 3982 4238 4450 4544 4437 4472 4611 4573 4399 4281 4243 4025 3782 3620 3474 3386 3106 2609 2292 2688 3138 3462 3327 2962 2857 3013 2858 3102 3064 2773 2521 2370 2261 2469 2578 2658 2866 3019 2986 2877 2902 3212 3675 3952 3840 4037 4375 4080 3953 4125 3942 3642 3329 2974 3882 4157 4258 4202 4251 4240 4114
0 93 128 178 462 563 690 869 1442 2002 2336 2279 2514 2682 2399 1869 1736 1343 1685 1556 2179 2996 4022 4310 4034 3997 4408 4654 4725 4656 4761 4879 4638 4483 4212 4144 3823 3771 3513 3638 3085 2849 2863 3369 3612 3563 3270 3232 2940 2904 2730 2922 2803 3973 2617 2430 2183 2258 2382 2551 2950 3129 3127 3002 3000 3100 3270 3502 3724 3852 4425 4143 3994 4009 4009 3868 3630 3445 3805 4128 4135 3779 3455 3434 3407
0 174 493 639 839 868 918 1044 1594 2180 1925 2006 2114 2718 2872 2900 2087 2112 1645 1960 2095 2499 3378 4128 3997 3956 4543 4970 4687 4842 4883 4888 5076 4848 4928 4838 4312 3707 3615 3448 3251 2894 2977 3056 3454 3321 3457 3156 2810 3176 3562 3095 2647 4217 2632 2495 2302 2191 2274 2630 3200 3213 3066 3177 3232 3367 3277 3181 3301 3627 3611 3319 3513 3582 3619 3630 3700 3739 3884 4279 4104 3855 3676 3765 3620
0 190 441 650 916 993 967 1182 1476 2376 2651 2251 2515 2627 2822 2754 2998 2166 1882 1639 2409 3039 3342 3912 4210 3848 4208 4961 4825 5006 5060 5200 5191 5066 4820 4610 4193 4219 3864 3794 3260 2976 2888 2840 3036 3288 3105 3518 2999 3217 3330 3334 3075 3547 3382 2631 2492 2373 2284 2438 3355 3293 3237 3324 3444 3308 3384 3450 3427 3292 3251 3490 3364 3329 3422 3514 3641 3733 3737 4217 4410 4135 4060 5351 4320
0 260 598 704 839 939 1113 1252 1426 1924 2315 2650 3127 3446 3400 2847 2841 2800 2616 2210 2655 3324 3525 4028 4441 4063 4009 4634 4678 4834 4885 4958 5023 5122 4942 4795 4697 4630 4584 4114 3404 3394 3328 2934 2620 2744 2958 3162 3154 3344 3218 3470 3515 3250 3181 3166 2648 2450 2409 2389 3239 3638 3344 3389 3424 3475 3401 3269 3465 3847 3667 3520 3523 3462 3311 3325 3475 3649 3760 3755 4220 4122 4067 3791 3638
33 246 591 856 895 1007 1153 1251 1684 2132 2398 2523 2995 3182 3070 2773 2993 3501 2896 2861 3432 3584 3895 4307 4677 4286 4289 4640 4732 4770 4723 4799 4881 4983 4958 4762 4789 4576 4633 4446 4287 4055 3720 3315 3104 3057 2918 3048 3232 3216 3131 3361 3564 3423 3300 3090 2952 2704 2475 2454 2809 3207 3155 3268 3327 3406 3450 3446 3524 3722 4032 3880 3678 3641 3545 3352 3227 3261 3421 3572 3625 3729 3748 3616 3468
113 380 725 970 1118 1328 1370 1316 2011 2491 2860 3022 3425 3820 3034 2582 2954 4216 3328 3035 4004 4080 4303 4612 4646 4471 4665 4711 4870 4767 4985 4880 4933 4968 4989 4983 4916 4707 4822 4805 4675 4392 3964 3734 3578 3387 3067 2828 2951 3007 2983 3154 3581 4119 3345 3234 3019 2825 2663 2497 2444 2840 3066 3226 3333 3442 3783 3921 3995 3886 3682 3744 3898 3748 3647 3607 3449 3163 3014 2965 3050 3107 3130 3112 3034
216 470 837 1071 1230 1314 1160 1432 2191 2902 3085 3386 3907 3991 3688 3439 4202 4666 3756 3547 4442 4345 4399 4695 4756 4696 4744 4830 4939 4868 4880 4812 4956 4980 4930 4968 5011 4750 4893 5056 4838 4540 4128 3857 3907 3595 3420 2917 2600 2724 2896 3046 3384 4760 3356 3187 3132 3022 2901 2802 2724 2666 2735 2952 3043 3422 3489 3850 4148 3882 3848 3672 3589 3705 3756 3724 3635 3552 3399 3190 3044 2918 2825 2735 2642
308 633 980 1242 1305 1215 1217 1795 2382 3317 2949 4597 5054 4361 3768 4446 5453 5037 4254 4392 4861 4763 4554 4886 4806 4686 4888 4899 5016 4898 4962 4772 4841 4861 4989 5039 4980 4625 4723 5096 4792 4265 4187 3965 3965 3673 3556 3236 3124 3104 3176 3206 3604 3796 4220 3213 3140 3149 3090 2958 2882 2824 2762 2691 2844 3326 3186 3278 3350 3628 3748 3830 3745 3457 3595 3667 3687 3647 3496 3310 3112 2920 2690 2457 2234
502 666 940 1122 1191 1113 1294 1693 2354 3326 3957 4305 4809 5172 3776 4935 5682 5313 4388 5139 5118 5129 4653 4890 4964 4723 4828 4745 4622 4235 4312 4347 4636 4404 4637 4876 4711 4572 4422 4764 4393 4000 3930 4033 3897 3686 3732 3553 3468 3367 3116 3064 3266 3586 4539 3605 3180 3168 3206 3239 3164 2966 2849 2825 2732 2779 2896 2985 3122 3270 3392 3463 3456 3469 3453 3448 3496 3492 3397 3213 3023 2765 2450 2142 1927
552 763 1017 1172 1159 1266 1239 1629 2202 3204 3737 4149 4974 5384 5665 5550 5141 4357 4161 5554 5300 5150 4878 5053 5044 4730 4674 4832 4851 4268 4315 4220 4164 4234 4148 4066 4491 4344 4442 4516 4359 4102 4066 4047 4076 3906 3981 3822 3739 3406 3154 3246 3367 3560 4159 4137 3521 3330 3351 3348 3314 3224 3129 3004 2897 2808 2716 2726 2819 2994 3141 3227 3216 3106 3015 3168 3170 3138 2992 2864 2818 2764 2553 2201 2031
760 938 996 1192 1339 1416 1471 1600 2048 3034 3538 4252 4675 5149 5460 5433 5137 4284 4177 5608 5458 4952 4928 5163 5092 4803 4694 4512 4810 4588 4373 4390 4152 4357 4522 4764 5073 4723 4490 4591 4345 4315 3912 3859 3931 3835 3991 3951 3940 3624 3469 3583 3599 3579 3730 4729 3926 3652 3538 3512 3473 3418 3358 3275 3203 3082 2938 2752 2954 2665 2786 2912 3016 3015 2885 3074 3094 2953 2823 2788 2741 2684 2594 2508 2907
730 952 1113 1210 1317 1476 1529 1681 2065 2990 3445 3954 4192 4455 4704 5052 4828 5416 4741 5042 5624 5168 5065 5038 4791 4522 4181 4356 4376 4076 4288 4168 4064 4432 3854 3908 3921 4122 3956 4970 4245 4011 3736 3500 3602 3914 3844 3536 3440 3593 3748 3826 3954 3677 3489 3958 4248 4042 3859 3750 3648 3559 3460 3441 3448 3490 3374 3042 3032 3066 2807 2614 2683 2814 2866 2798 2795 3030 2996 2891 2814 2588 2528 2897 2651
954 1166 1249 1297 1454 1568 1635 1834 2290 2697 3034 3433 3764 3853 4393 4438 4544 4987 4763 4998 5584 5282 4816 4650 4458 4244 3544 3535 3932 3912 4266 4242 4218 4098 3962 3978 3943 3929 3898 4122 4127 3925 3754 3756 3697 3679 3563 3390 3750 4076 3322 3441 3682 3996 3738 3649 4071 4107 4081 3925 3779 3692 3635 3628 3691 3733 3721 3470 3040 2948 2732 2762 2800 2807 2820 2826 2798 2784 2770 2726 2650 2588 2584 2851 2637
Wind_Speed
5 5 7 10 12 11 12 12 11 11 8 9 7 7 4 nan 7 7 6 7 8 7 6 5 5 4 4 2 nan 5 9 8 7 6 5 5 5 6 6 7 9 9 10 9 9 9 8 6 8 8 10 10 11 10 10 11 10 10 9 11 13 15 10 12 9 9 7 9 12 9 9 10 9 11 9 7 8 5 9 9 6 6 6 7 8
6 5 6 9 9 12 11 9 12 11 9 9 6 7 5 nan 7 7 7 8 7 6 7 6 6 5 4 3 nan 4 7 8 11 9 5 4 5 7 7 7 7 9 10 10 9 8 7 9 7 8 12 10 10 9 10 11 11 12 10 12 15 15 12 10 6 7 9 8 10 10 8 10 9 11 12 10 10 7 6 6 11 6 7 8 9
5 8 8 9 12 13 9 9 10 10 11 10 6 7 6 nan 9 8 7 8 6 6 7 7 6 4 4 5 3 5 7 7 9 11 8 4 4 6 7 5 7 7 9 9 9 9 8 7 10 11 10 8 9 9 10 7 12 12 11 12 15 15 10 9 7 10 9 8 9 8 7 7 10 9 11 10 9 8 7 8 5 6 6 7 9
3 7 9 9 12 12 10 10 9 9 10 9 8 7 6 9 10 9 8 8 7 7 6 7 5 4 4 5 6 4 6 8 9 10 13 6 5 5 6 6 7 7 8 8 9 8 6 8 7 9 9 8 8 8 10 9 9 10 10 11 12 14 9 9 10 9 13 5 7 10 7 5 6 9 10 8 10 6 7 nan 9 4 6 8 10
1 7 6 9 12 13 11 10 11 8 9 9 8 7 6 9 10 11 10 9 8 8 5 6 5 4 4 6 8 9 7 8 10 10 nan 10 6 6 5 6 6 7 5 6 7 7 7 7 6 8 9 8 8 9 10 8 9 8 8 9 12 13 11 8 10 8 10 9 8 7 6 4 6 10 9 8 8 9 5 6 8 9 8 10 11
4 3 4 8 12 15 12 13 12 10 9 9 8 8 8 10 11 12 12 12 9 8 6 5 5 4 5 6 6 10 9 7 8 9 nan nan 6 4 3 5 5 6 4 5 6 5 6 6 4 6 8 8 9 7 6 7 9 10 8 10 11 10 11 9 7 7 7 7 8 6 4 3 4 6 6 8 9 8 9 4 8 9 12 12 12
6 3 4 7 11 15 17 15 14 11 11 10 9 8 8 12 11 12 13 14 11 10 6 5 5 6 5 6 9 9 10 9 10 9 9 nan 12 6 5 4 4 5 3 5 4 5 5 6 5 5 5 6 9 5 6 7 9 8 10 7 10 11 12 8 5 4 6 8 8 7 6 6 6 6 5 6 7 8 9 7 8 11 14 15 14
9 2 6 7 12 17 18 17 14 13 12 11 10 9 9 13 12 12 14 14 14 11 7 6 6 6 6 7 8 8 9 9 7 10 10 9 10 9 5 4 4 5 5 3 5 5 5 5 5 5 4 4 7 5 5 5 7 7 9 4 7 9 10 9 8 2 3 7 7 7 4 nan 8 8 6 4 6 6 7 6 nan nan 12 13 14
8 6 5 8 11 13 15 16 15 15 14 10 9 11 12 14 14 13 13 14 14 12 9 7 8 7 7 8 9 9 10 9 9 10 11 10 8 10 7 5 4 4 6 3 4 5 4 5 4 5 4 3 4 4 3 3 6 7 5 6 6 7 9 7 7 7 7 4 7 6 8 7 5 5 6 4 5 5 7 7 5 nan 8 8 9
12 11 9 7 10 13 16 16 16 15 13 10 9 11 12 15 15 12 12 13 14 13 10 8 8 8 8 8 8 9 9 10 10 9 11 11 10 9 10 7 5 4 5 4 3 4 4 3 3 3 3 2 2 3 2 4 4 5 4 5 6 5 7 5 7 6 8 4 3 4 3 7 5 4 4 5 3 3 6 7 6 9 6 9 10
12 13 12 7 10 11 12 15 16 15 12 13 9 9 11 14 14 12 12 13 13 13 11 9 8 8 9 8 8 8 7 9 10 10 10 11 11 9 9 8 6 4 3 3 2 2 2 2 1 1 2 1 1 2 1 2 3 3 3 3 4 4 5 4 5 4 5 5 1 3 3 4 2 1 4 3 3 3 4 5 7 7 8 10 9
14 14 14 12 12 12 12 14 16 15 14 15 11 7 10 13 14 13 13 12 12 13 11 9 9 8 9 9 8 8 7 9 10 10 8 9 9 9 7 8 7 5 4 3 2 1 1 1 2 1 1 2 4 3 2 2 3 5 4 3 2 2 3 3 5 4 4 2 3 4 4 5 3 4 5 5 1 0 2 5 8 8 5 8 12
16 15 14 12 13 12 10 15 16 15 14 13 10 6 7 11 13 14 13 12 12 13 11 10 10 9 10 9 9 8 8 9 10 11 9 9 8 8 7 7 6 6 4 3 1 1 2 1 1 2 3 2 4 4 2 4 4 5 7 6 4 3 3 3 4 4 5 3 6 6 7 7 7 7 5 6 5 6 6 8 8 6 8 11 10
18 16 12 11 13 14 11 13 16 14 12 10 11 5 5 8 12 13 13 13 14 13 12 11 10 10 11 12 10 9 8 8 10 10 10 9 8 8 7 6 6 6 4 3 2 1 3 3 2 2 3 3 4 4 4 5 6 5 6 4 4 4 4 5 4 6 4 5 4 3 5 5 5 8 nan 2 8 7 7 10 9 6 8 8 10
20 17 15 14 15 17 14 13 14 13 15 12 10 4 4 6 10 12 13 13 14 13 13 11 11 12 13 12 11 9 9 10 11 11 11 10 9 8 9 8 7 6 5 5 4 4 4 6 5 3 4 4 4 5 4 5 6 4 3 3 1 5 5 5 6 8 7 8 6 5 3 3 1 2 4 8 4 6 7 4 3 4 6 8 10
22 20 17 16 17 18 14 14 14 12 14 13 11 5 2 4 8 10 12 14 14 14 13 13 13 14 14 13 11 9 10 10 12 12 12 11 10 10 9 10 8 8 7 6 4 6 5 7 8 6 6 6 5 5 5 5 5 4 2 1 2 4 5 7 8 9 10 9 9 7 6 5 2 3 2 2 4 3 4 3 5 6 7 8 8
20 20 19 18 19 18 15 15 12 10 11 12 9 6 4 3 7 9 11 12 13 13 13 14 15 15 15 14 12 11 9 9 10 10 8 11 12 11 11 9 10 10 8 7 6 7 7 8 8 8 7 7 6 5 5 4 4 2 2 3 5 8 6 7 8 9 9 10 9 10 9 9 7 2 1 0 5 5 3 4 4 5 7 7 8
23 22 22 20 19 19 16 16 16 13 10 11 10 2 4 3 6 10 11 11 12 14 14 15 16 16 16 15 14 11 10 9 10 10 10 12 12 12 12 11 10 11 9 7 8 7 9 9 10 9 9 7 6 5 4 2 1 2 5 5 7 7 6 5 6 8 8 8 9 10 12 10 9 7 6 4 3 5 5 4 4 6 7 8 8
29 28 28 23 19 18 17 16 16 15 9 9 10 4 6 3 6 10 11 11 12 14 14 16 16 18 18 16 14 13 12 11 12 13 12 11 8 10 10 12 11 11 11 11 10 10 11 10 11 10 9 7 5 4 1 1 3 5 5 4 5 4 4 4 5 6 7 7 7 7 7 9 10 10 8 7 6 7 5 3 3 4 6 7 7
31 29 29 26 22 19 17 19 19 16 13 12 16 13 8 9 6 8 10 11 13 14 15 15 15 17 18 18 17 15 14 13 14 14 12 10 10 10 9 9 11 11 11 12 12 12 11 11 11 9 7 5 4 1 1 3 3 3 3 3 3 3 3 4 5 6 7 7 6 6 6 6 6 6 8 6 4 5 5 5 4 5 5 5 5
30 27 24 23 23 21 20 20 20 18 15 15 17 14 4 9 10 10 12 13 13 14 14 15 16 17 20 19 17 17 14 14 13 14 13 12 11 11 10 10 13 11 11 11 13 13 13 11 10 8 6 5 4 2 3 3 2 0 0 0 1 5 5 5 5 5 6 6 7 7 7 8 7 7 8 7 7 5 4 3 2 3 4 4 4
37 31 26 23 23 22 20 19 20 20 20 17 15 17 15 3 10 12 12 11 13 13 14 16 16 17 18 20 19 18 16 16 13 14 13 13 12 12 12 11 11 11 11 10 12 13 13 11 9 7 6 6 5 4 3 4 3 2 2 3 1 5 6 6 5 6 6 6 6 7 7 7 8 8 7 9 8 6 4 3 3 3 4 4 4
39 37 30 25 22 21 21 20 21 20 20 17 13 14 15 12 6 9 12 13 12 12 14 16 17 17 18 21 22 21 19 16 14 14 13 12 12 12 12 11 9 10 12 12 12 12 12 11 9 8 7 8 7 6 5 5 5 4 4 4 5 5 7 7 7 7 7 6 6 6 7 8 8 9 9 8 7 5 4 2 2 3 4 4 3
37 38 32 23 21 23 24 23 23 22 21 17 13 12 16 15 9 2 13 15 13 11 12 15 17 17 18 21 23 23 21 18 15 15 14 14 14 13 13 11 9 10 12 13 13 12 12 12 9 9 9 9 9 8 6 6 5 5 4 5 6 7 7 8 8 8 8 7 8 7 6 7 7 7 8 8 7 5 3 2 3 3 1 1 1
32 35 32 25 23 25 27 24 22 20 17 20 18 13 14 16 16 9 9 13 11 11 12 14 16 17 18 19 21 22 22 20 17 15 15 15 16 15 15 12 10 10 12 14 15 13 12 12 10 10 10 10 11 9 8 6 7 6 5 5 6 7 8 8 8 8 8 8 8 7 7 6 5 5 5 6 4 4 2 1 1 1 0 0 1
nan 35 40 33 25 25 27 27 24 20 16 17 18 16 14 15 16 16 12 11 12 12 13 14 14 16 18 19 20 21 21 21 19 17 17 17 17 17 17 15 13 11 14 15 15 14 13 13 11 11 12 12 13 12 9 8 7 7 7 6 7 7 8 8 8 8 8 9 7 7 5 5 5 4 4 3 3 3 2 0 1 3 2 2 2
28 31 32 32 28 23 25 25 21 17 17 18 19 18 16 15 16 15 9 10 11 11 12 15 15 15 16 18 19 20 21 21 21 19 20 19 18 18 18 17 15 13 14 15 16 16 15 14 13 13 13 14 14 13 12 10 8 9 9 9 8 9 8 8 9 9 10 9 8 7 5 4 3 3 3 3 2 2 1 1 2 2 2 1 2
37 31 28 30 29 24 23 24 20 18 17 18 21 19 18 19 17 16 14 11 11 11 13 15 15 14 14 17 18 20 21 21 22 22 22 21 20 20 20 20 18 16 14 15 17 17 18 17 16 14 14 16 15 14 14 12 10 9 11 11 9 10 11 10 10 10 10 10 9 7 6 5 4 2 2 2 2 2 3 1 2 4 4 3 3
52 53 50 42 33 27 24 22 19 19 20 19 21 21 22 22 19 20 16 11 14 13 12 15 15 14 14 15 18 20 21 22 22 23 22 22 22 21 22 22 21 18 16 15 17 18 19 18 18 17 15 16 15 14 14 14 12 10 12 12 11 10 11 11 11 11 11 9 8 8 7 4 4 5 5 3 1 3 3 2 3 5 5 4 3
53 53 51 44 44 45 40 29 21 20 23 23 25 26 24 22 20 21 18 15 18 15 13 14 15 14 15 16 18 19 21 22 22 22 22 22 24 24 23 23 23 21 19 18 17 20 19 20 20 20 17 15 16 15 14 14 14 13 12 12 12 11 10 10 12 11 11 11 10 8 7 10 8 8 8 7 7 6 4 1 5 7 6 5 4
53 50 50 49 48 49 48 52 53 50 38 31 33 29 26 21 21 19 19 18 19 17 14 13 13 14 16 16 16 17 20 21 22 22 22 21 23 25 25 24 24 24 22 20 19 19 20 20 20 21 19 16 15 15 16 16 16 15 13 11 12 13 11 10 11 13 11 10 11 10 7 5 6 6 7 8 7 6 6 6 3 2 7 8 6
54 54 52 51 51 51 50 44 39 42 49 51 41 34 26 23 21 18 19 19 18 18 15 13 14 14 16 16 16 16 18 19 21 22 22 21 21 24 25 25 25 25 24 23 20 19 20 22 21 21 21 18 17 17 21 19 18 17 15 13 11 12 13 11 10 10 11 10 9 9 9 7 6 6 8 5 3 5 7 7 6 3 1 2 5
53 53 52 51 52 50 50 50 42 33 31 31 35 36 34 24 22 20 22 19 17 16 16 16 15 15 16 17 17 16 16 18 19 21 21 21 20 21 23 24 24 26 27 25 22 21 20 22 22 21 20 20 18 20 23 22 21 19 17 14 12 11 12 12 11 10 10 10 10 8 6 7 7 8 7 8 7 4 3 7 5 4 1 1 2
53 53 53 53 50 50 51 51 47 43 42 39 32 28 29 26 25 26 25 25 19 18 18 17 16 15 15 18 17 16 16 16 18 20 20 21 20 20 21 23 24 26 26 25 24 23 23 22 22 22 21 21 19 24 25 24 23 22 19 15 13 12 11 12 12 12 11 10 10 10 9 7 6 7 9 8 8 6 5 4 5 6 6 2 1
nan 55 54 52 50 49 49 49 48 45 41 39 35 28 33 37 38 34 32 25 22 19 20 19 17 16 15 16 17 16 16 17 17 18 19 19 19 19 20 22 22 23 24 25 25 24 24 23 23 24 24 21 19 27 26 25 24 23 20 17 14 13 13 12 13 12 13 12 11 11 10 9 8 6 7 9 8 8 8 7 5 5 5 5 6
nan nan nan 50 49 48 44 43 42 41 43 42 37 35 30 27 26 26 25 22 22 21 22 20 18 16 15 15 16 15 16 17 17 17 17 18 18 19 19 21 21 20 22 24 25 24 24 24 24 24 23 22 21 28 27 26 25 24 22 19 16 14 13 14 14 13 14 14 13 12 11 10 9 8 8 7 7 9 9 7 8 7 6 6 6
nan nan nan nan 47 44 42 40 37 37 39 40 39 37 32 26 28 22 17 18 21 22 23 20 17 17 16 15 15 15 15 17 18 17 16 17 18 19 18 20 20 20 21 22 23 22 23 23 24 24 22 23 23 27 27 26 26 25 24 22 17 16 14 13 14 15 15 15 14 13 12 11 11 9 9 11 8 9 9 8 8 6 6 5 7
nan nan nan nan nan 48 47 44 41 38 36 38 37 30 27 26 25 20 17 19 20 19 22 21 17 18 17 16 15 16 16 17 18 18 17 17 18 18 19 19 19 20 20 21 22 22 22 21 22 22 22 23 23 28 26 25 26 26 26 22 19 18 16 15 15 15 15 15 14 13 13 12 11 10 13 14 12 11 9 9 9 8 6 5 7
nan nan 51 52 51 49 47 43 38 34 33 34 33 29 27 25 25 22 21 20 17 17 22 21 18 19 20 19 17 16 16 17 18 18 18 18 18 19 19 20 19 19 19 21 22 22 22 21 20 21 21 22 21 27 26 26 25 27 25 21 21 19 18 18 17 16 14 14 14 12 11 11 11 11 14 15 15 14 10 9 9 9 6 5 7
nan 52 53 51 49 46 45 43 39 37 36 35 32 29 26 26 25 25 21 18 16 16 20 22 21 22 23 22 18 17 16 17 18 20 20 20 20 20 20 20 20 20 20 21 22 22 21 20 21 21 23 22 19 26 25 26 28 27 25 22 22 20 18 18 18 18 16 14 13 13 12 11 12 12 13 16 16 16 12 10 11 9 8 6 9
nan 53 53 50 49 48 47 46 43 41 39 37 37 32 28 28 28 26 21 17 17 22 25 26 24 22 23 23 21 19 18 18 19 21 21 22 21 21 20 21 21 21 21 21 21 22 21 21 20 21 21 20 19 22 26 26 27 28 25 22 21 19 19 19 20 18 16 16 15 13 12 14 16 15 15 18 18 16 13 11 11 10 10 16 22
nan 54 53 53 52 50 49 48 45 44 43 41 37 34 33 32 31 26 23 20 23 29 30 28 26 23 22 23 22 22 20 20 20 22 22 22 22 22 22 22 21 22 22 22 21 22 21 21 20 20 19 19 20 18 28 23 26 27 26 22 20 19 19 19 18 18 16 15 15 15 14 15 20 20 19 20 20 18 15 12 10 10 12 21 19
nan 59 59 57 55 54 51 49 47 45 43 42 41 37 35 34 33 28 24 25 31 33 32 30 29 26 24 23 24 24 23 22 22 22 22 23 23 23 23 24 23 23 23 23 22 21 21 21 20 20 19 19 21 20 28 25 23 24 23 20 16 17 17 18 17 16 17 15 15 15 16 18 21 22 21 21 21 20 18 14 10 11 17 22 22
62 59 57 57 54 54 53 51 48 45 44 42 43 41 39 36 33 31 29 32 37 37 35 34 32 30 28 27 26 26 26 25 23 23 23 24 24 23 24 25 25 25 24 23 23 21 19 19 19 19 19 18 19 21 25 26 23 22 20 19 14 12 18 17 17 16 18 18 16 16 15 19 22 22 22 21 21 21 17 15 14 14 17 22 23
64 60 57 56 53 53 53 50 47 46 43 44 45 43 40 38 37 35 36 39 42 39 37 36 35 34 32 31 29 28 28 26 25 25 24 24 24 24 25 26 26 25 24 24 22 21 19 18 18 19 20 19 20 23 25 22 24 21 19 16 14 12 11 15 17 18 17 21 24 21 16 20 21 21 21 21 18 18 17 17 19 19 22 24 24
66 63 60 56 53 52 51 50 48 48 45 50 51 43 39 42 41 40 41 44 45 43 39 39 38 37 36 34 32 29 29 27 25 26 26 24 24 24 25 26 26 25 24 23 22 21 19 19 19 19 20 20 21 22 24 23 21 19 17 16 14 11 10 13 15 22 29 29 25 30 29 24 20 17 18 19 19 18 18 18 21 24 24 24 25
64 61 59 56 53 50 50 49 48 47 49 49 50 46 42 43 42 43 44 47 48 45 41 40 40 39 39 35 32 30 29 27 25 26 25 24 23 24 24 26 25 25 24 22 22 21 20 20 19 19 19 21 21 20 23 24 25 23 21 19 15 13 10 12 16 25 26 27 26 25 25 23 22 18 15 17 17 21 22 21 20 21 22 22 22
62 59 59 58 53 49 47 46 44 43 44 47 47 51 47 48 44 43 44 47 48 46 42 39 39 40 39 37 35 33 32 30 27 26 24 22 22 22 23 25 24 24 23 22 22 21 21 20 20 19 20 20 19 19 19 22 22 24 24 23 22 20 20 19 18 19 22 25 27 27 25 22 21 19 14 15 15 18 18 19 19 20 21 21 21
65 62 61 58 53 49 46 43 41 40 42 44 47 50 53 47 46 42 45 47 47 46 42 39 39 41 39 37 35 36 34 32 32 28 25 24 22 22 23 24 23 23 22 22 21 20 20 20 21 21 20 19 17 17 16 21 22 23 24 24 24 21 20 22 17 18 22 21 24 24 20 18 17 15 15 14 15 17 17 18 20 22 23 24 27
62 59 58 58 54 48 45 44 41 39 41 44 48 49 52 52 47 43 43 45 47 45 41 38 39 39 37 36 35 32 34 33 33 35 35 32 37 41 34 25 24 33 33 26 21 20 20 21 20 19 19 18 16 16 20 26 26 24 23 23 21 21 20 21 21 20 20 19 19 20 18 16 15 15 15 16 16 19 19 20 23 26 26 29 33
61 63 61 60 55 50 47 47 43 42 41 46 49 50 51 51 50 47 45 42 42 41 38 37 39 39 36 36 35 33 33 34 35 38 32 33 33 38 44 45 40 36 36 37 36 33 28 23 21 23 30 34 28 30 29 29 27 25 23 24 25 24 24 22 24 25 21 18 17 16 15 15 15 16 16 17 19 20 21 24 26 30 30 36 39
Wind_Direction
308 332 340 337 340 338 328 324 311 294 281 274 298 284 237 nan 214 238 214 197 190 190 194 195 217 174 181 189 nan 126 143 157 145 167 181 159 142 118 107 100 89 81 86 85 80 90 105 94 93 101 90 85 94 96 99 97 100 102 101 103 107 110 111 114 107 120 146 126 121 120 106 88 81 72 64 57 58 62 76 78 86 45 43 62 48
310 316 342 344 334 339 330 324 323 305 280 276 295 277 235 nan 228 236 214 211 201 199 202 206 211 184 182 174 nan 145 149 163 153 161 187 175 149 125 119 111 102 94 90 88 83 79 83 81 74 84 77 80 94 99 106 108 105 95 88 96 103 110 107 95 132 127 116 109 101 99 94 85 73 63 56 45 48 50 59 64 67 42 22 38 50
319 319 345 349 337 337 324 324 328 313 299 290 278 265 236 nan 214 227 213 228 215 217 205 211 214 190 174 162 164 168 153 162 154 156 169 206 162 129 119 100 90 87 90 91 93 90 84 88 85 79 81 75 80 87 85 93 102 99 98 100 103 99 117 128 105 107 105 84 107 115 92 90 98 87 74 56 51 41 38 54 65 15 21 32 36
329 328 334 337 323 327 323 326 317 313 290 285 293 270 240 236 210 227 216 231 227 224 217 217 212 189 176 154 152 179 169 166 163 175 160 206 170 143 133 116 90 78 70 80 99 91 78 80 83 97 91 89 91 93 88 78 84 94 101 99 104 106 103 109 108 119 115 121 122 97 92 86 60 69 62 63 62 33 39 nan 61 33 28 36 36
271 318 321 325 323 327 321 318 323 320 296 286 287 275 235 251 221 230 218 229 230 236 240 216 209 193 170 160 154 177 206 177 177 181 nan 177 185 156 130 115 99 97 88 86 92 92 84 81 89 99 95 81 79 83 87 92 97 93 90 94 98 110 111 113 110 118 142 141 132 130 108 73 63 47 35 71 76 77 27 23 65 42 19 29 33
286 262 315 334 327 314 314 321 337 325 298 279 275 270 247 243 230 228 222 220 239 248 251 219 202 203 183 178 174 176 195 202 181 181 nan nan 166 163 142 104 96 105 110 92 107 104 103 97 79 94 90 88 82 91 96 103 98 100 86 96 105 105 121 114 115 127 138 133 123 90 88 85 73 51 61 78 92 102 90 10 59 51 15 17 25
277 339 321 330 320 322 323 328 339 333 306 283 270 263 250 246 236 234 228 219 236 247 258 222 217 198 198 191 188 187 190 198 184 176 184 nan 160 196 186 140 137 113 103 121 125 127 121 114 111 100 91 86 95 82 86 87 91 88 96 92 115 129 121 125 104 139 150 118 100 89 81 104 81 86 81 94 110 105 111 39 35 36 7 11 20
299 311 334 352 341 332 329 326 332 335 316 294 278 268 250 247 246 239 228 226 232 243 248 243 227 213 211 203 196 198 183 195 190 170 185 193 164 172 207 173 161 140 145 156 143 145 143 132 128 123 105 95 93 86 78 93 110 87 86 96 103 107 107 119 128 127 99 119 107 124 94 nan 110 119 125 103 86 97 95 76 nan nan 358 26 24
308 313 2 346 324 318 321 322 328 332 323 308 280 257 245 247 246 238 235 231 234 251 247 246 231 224 224 210 207 198 186 191 184 174 178 185 189 169 199 198 201 166 151 180 162 150 162 149 137 130 132 128 106 92 53 83 85 89 68 74 89 92 105 114 126 111 103 85 125 139 138 113 111 100 103 85 100 83 78 59 41 nan 30 14 30
317 332 344 348 315 316 321 319 320 330 328 308 284 262 256 249 251 247 244 235 236 252 249 249 238 232 227 219 222 205 190 187 185 180 180 184 188 183 186 207 212 188 156 174 188 160 160 161 151 122 122 111 88 98 2 13 51 82 84 73 73 72 85 97 98 117 120 123 92 127 129 134 134 109 77 76 64 76 71 84 39 28 32 39 39
313 323 321 309 312 308 313 319 320 326 322 324 310 272 269 261 258 256 247 237 239 252 254 251 242 232 230 231 227 218 198 189 193 195 188 190 185 191 184 196 207 205 170 175 207 137 158 160 125 127 127 178 170 178 226 336 337 9 42 48 49 44 69 84 90 91 105 130 95 119 105 83 58 191 110 118 91 65 76 85 86 52 6 40 50
312 310 304 311 310 313 314 316 321 325 329 336 331 293 267 263 266 265 252 246 243 250 253 253 240 240 236 236 231 221 205 191 195 204 204 192 191 187 191 192 190 207 182 202 178 39 196 182 143 215 209 203 263 208 235 270 313 318 318 328 31 39 53 39 74 58 63 72 76 15 55 69 356 56 30 9 352 358 55 81 71 54 54 47 40
297 293 293 304 308 299 310 309 308 324 331 341 342 336 280 267 277 280 268 260 253 251 256 255 246 243 246 243 234 219 209 197 198 203 209 198 193 190 194 192 190 184 201 196 210 27 252 271 189 198 262 208 255 267 223 274 262 280 296 323 342 351 31 23 46 49 57 10 53 5 14 41 357 14 31 359 331 339 20 36 55 74 44 44 55
291 286 290 301 302 300 303 294 301 313 317 324 349 346 266 271 277 289 282 272 260 255 255 255 249 245 243 247 238 224 211 204 203 203 211 202 201 188 186 189 190 175 194 191 224 315 273 284 268 234 241 248 256 261 266 261 258 238 285 304 335 335 9 20 28 41 36 45 54 76 24 17 12 346 nan 343 345 357 23 32 38 39 59 57 41
289 285 284 281 280 290 296 297 298 303 325 337 351 355 261 264 274 284 281 279 271 266 255 255 246 245 245 247 245 230 218 209 206 205 205 208 200 193 186 186 184 181 175 202 203 259 264 274 290 280 261 273 276 278 282 271 273 279 233 294 310 327 20 33 39 51 45 41 49 59 98 115 28 239 339 8 18 1 10 4 346 19 54 67 66
297 297 298 293 277 271 281 277 281 301 322 333 347 355 324 269 278 282 284 282 276 272 262 258 247 245 250 252 252 245 228 222 213 210 204 207 204 197 191 184 186 191 187 201 208 243 262 274 283 289 283 293 291 295 296 291 286 298 311 303 67 54 44 56 72 70 62 59 52 52 57 71 111 16 9 26 337 339 299 329 347 3 17 54 65
303 305 300 290 283 283 280 275 288 300 319 321 317 355 21 302 282 279 269 269 276 276 269 259 250 247 255 257 253 248 247 245 233 227 217 209 207 202 198 187 185 196 204 200 222 227 255 267 278 290 293 290 297 296 301 290 292 320 17 86 88 91 86 75 72 74 76 59 42 45 37 36 52 53 271 45 297 303 304 328 7 24 21 35 49
300 302 291 284 279 282 283 271 281 283 275 308 312 327 50 1 309 298 283 279 278 279 271 259 254 252 252 258 259 256 250 252 245 240 226 216 213 209 203 199 189 195 207 207 224 243 248 264 265 277 290 299 302 304 299 308 290 93 96 90 93 98 92 69 62 69 60 55 53 33 18 26 31 38 23 28 314 304 311 346 13 26 4 22 38
285 287 280 282 283 287 285 285 291 287 297 275 276 313 62 62 342 324 316 298 286 273 266 252 252 245 246 256 265 257 247 244 240 241 235 228 230 224 211 208 207 200 208 215 234 243 245 257 259 272 282 297 300 301 300 125 114 115 103 94 87 74 80 63 39 37 52 49 41 45 18 12 15 23 29 25 1 330 327 343 28 13 18 20 41
282 282 280 285 295 302 304 301 299 297 289 283 272 239 142 77 19 343 327 296 280 277 268 264 264 251 249 251 254 253 250 244 243 247 245 242 238 238 230 223 224 217 213 223 239 243 247 259 264 279 291 295 290 254 130 138 137 122 102 81 34 11 34 42 37 25 34 24 24 27 29 18 17 13 27 41 42 347 337 346 22 35 36 37 35
281 286 284 287 297 300 302 292 283 282 285 280 278 296 330 69 57 13 343 328 309 294 285 273 265 256 256 258 260 257 262 250 253 251 250 244 242 244 244 229 232 232 227 231 240 245 252 254 269 276 290 270 244 182 182 189 180 255 120 32 343 341 355 11 18 39 26 14 5 11 12 10 13 16 21 32 40 34 350 350 38 51 47 42 37
279 281 283 288 289 290 291 283 272 271 269 277 273 290 305 311 79 45 10 347 326 303 283 276 269 266 268 265 264 260 257 251 258 255 257 252 247 245 248 241 243 246 241 245 245 251 253 260 268 270 255 257 237 212 204 222 266 275 311 327 26 328 345 356 358 12 16 11 359 355 2 9 2 12 22 28 33 47 18 9 18 54 69 74 46
278 272 273 284 283 277 278 280 282 284 276 280 281 293 299 322 353 51 38 9 344 320 294 273 269 268 269 267 263 260 258 261 268 261 269 269 258 255 250 254 248 256 250 252 254 260 257 264 261 256 241 236 238 233 220 236 259 285 312 324 330 335 337 349 359 2 3 355 0 354 0 1 5 5 10 32 45 42 59 77 39 19 39 61 68
275 274 278 271 275 274 272 277 276 274 273 280 286 283 288 293 315 318 59 26 357 332 304 284 277 280 280 273 266 262 270 269 268 261 272 275 269 267 261 261 259 255 260 255 263 268 266 269 268 253 243 226 241 237 235 245 265 283 300 315 314 325 336 343 352 355 358 350 351 355 2 1 2 4 2 8 22 40 59 103 153 157 188 109 80
275 280 276 269 266 268 270 274 270 272 272 272 272 287 300 303 306 327 34 31 1 341 319 300 291 287 283 278 279 274 271 272 271 264 274 276 275 274 269 272 271 262 264 262 260 267 264 269 270 256 245 232 236 245 246 256 267 281 299 310 306 308 326 338 347 348 349 346 349 351 352 357 354 3 2 4 10 25 21 89 163 205 118 45 130
nan 255 270 272 261 257 260 265 265 265 275 270 276 274 287 304 316 321 356 13 356 343 331 310 296 287 279 285 282 279 280 279 275 272 274 273 271 274 277 273 274 268 263 269 269 268 265 265 261 252 245 242 235 242 248 254 277 288 294 301 301 305 319 332 344 351 349 347 349 348 348 341 355 9 14 2 354 19 11 305 191 198 225 263 326
255 256 272 268 259 256 256 266 265 271 270 267 266 275 289 281 295 310 318 344 344 335 323 317 309 302 283 284 285 283 279 279 273 266 263 264 268 274 278 280 275 271 271 275 277 274 268 267 264 255 247 246 242 242 244 252 262 279 293 301 306 314 322 330 344 355 357 353 353 351 338 341 349 358 14 3 332 343 331 209 217 230 234 239 234
219 222 257 265 257 245 253 259 261 262 267 259 262 272 273 280 289 287 298 326 323 324 317 311 311 304 291 291 285 278 275 272 266 258 256 262 263 267 270 271 270 273 273 275 280 280 272 272 272 266 252 248 249 245 245 253 260 272 285 296 302 310 324 332 341 351 358 357 351 355 359 336 343 338 346 323 300 287 293 306 243 223 227 241 270
216 215 215 219 229 237 240 243 250 266 263 257 259 263 261 267 270 277 286 309 305 308 313 314 311 312 303 289 274 270 269 270 269 263 259 259 261 261 262 266 269 270 268 268 273 280 279 279 278 275 267 257 257 252 247 254 261 267 275 291 304 312 319 325 334 347 352 354 346 346 347 351 316 347 5 9 337 294 273 262 249 244 234 243 267
218 216 213 214 217 211 209 216 234 249 245 251 250 251 259 268 275 284 283 296 293 305 304 313 321 316 303 293 280 270 271 273 274 272 265 261 260 259 259 263 271 273 266 263 262 270 281 281 280 283 280 269 260 256 257 278 276 267 271 284 294 308 316 318 326 336 347 350 354 358 348 3 2 350 356 10 16 14 359 294 237 246 253 252 256
217 217 215 213 215 214 216 210 202 200 209 232 237 245 254 262 269 281 286 291 297 293 300 308 313 307 299 296 286 279 274 277 279 278 273 267 263 262 259 258 265 271 268 265 262 267 278 280 282 284 290 282 273 265 279 277 283 290 279 278 289 301 311 319 321 326 336 344 343 346 347 347 333 341 338 5 11 3 4 15 27 241 239 238 242
214 215 213 212 211 215 219 225 213 204 197 196 210 227 234 245 255 270 283 287 287 288 299 295 297 291 292 300 295 288 281 279 279 282 283 278 268 266 264 262 262 271 267 265 267 266 268 275 276 282 287 287 278 278 286 284 284 289 288 283 288 291 305 314 319 323 325 331 338 337 337 332 301 284 279 299 344 0 7 19 22 17 40 217 259
209 212 212 211 209 210 212 212 222 227 220 209 197 199 217 229 241 250 261 271 275 289 284 279 285 291 293 298 298 298 291 285 285 284 284 283 280 275 275 273 269 268 268 267 266 266 266 268 274 278 280 282 279 284 288 291 289 290 294 290 285 290 296 307 315 323 319 319 321 325 325 313 312 333 307 279 272 272 3 22 18 15 15 179 124
208 209 209 209 210 208 206 206 210 215 215 214 216 227 226 223 225 231 243 242 250 256 268 274 275 280 285 293 298 302 300 293 288 286 285 290 289 287 286 280 275 270 271 272 270 267 264 264 268 274 273 272 276 277 290 292 293 295 297 290 279 289 293 297 305 313 314 312 314 316 319 319 298 280 276 282 269 264 266 278 277 259 256 236 168
nan 206 205 208 209 208 206 206 207 213 219 222 224 231 230 224 225 217 224 237 240 245 255 265 268 271 274 286 297 304 304 296 293 290 290 295 296 290 291 287 287 281 277 275 273 268 266 266 267 268 270 272 272 281 289 292 293 297 299 287 277 279 280 284 288 296 304 308 308 313 312 316 312 302 279 274 268 262 259 265 277 272 270 257 249
nan nan nan 207 208 208 207 205 207 208 214 220 226 225 234 245 247 247 242 234 242 247 257 261 264 271 277 284 292 300 301 300 299 295 295 298 297 295 293 288 288 289 280 278 274 271 271 270 268 268 269 274 271 284 289 291 293 294 297 271 276 275 269 265 272 283 291 296 305 308 309 316 315 307 317 323 290 263 253 258 267 269 261 260 262
nan nan nan nan 205 208 208 208 208 206 214 224 219 218 221 240 255 254 253 258 259 259 263 268 273 276 276 281 288 297 299 303 302 301 301 300 297 293 290 284 287 288 289 289 285 283 270 271 270 267 268 266 269 279 290 293 291 295 282 264 274 270 270 267 257 263 275 286 298 304 307 315 321 318 321 324 323 292 257 256 255 257 253 245 252
nan nan nan nan nan 207 206 208 207 206 213 224 222 219 228 232 245 255 260 254 267 270 272 277 281 281 279 278 281 289 295 299 300 306 304 299 294 288 289 284 287 288 291 290 286 283 277 275 274 272 272 263 263 272 291 292 295 292 287 270 268 266 268 267 263 261 262 270 286 317 319 316 318 316 329 326 322 301 269 260 255 254 247 231 229
nan nan 199 201 203 203 202 204 207 208 213 220 219 221 222 232 249 255 251 251 253 265 277 286 286 283 275 272 273 279 286 292 298 299 299 299 299 289 284 279 283 284 282 278 279 281 280 277 281 278 279 272 264 269 290 293 295 291 286 270 264 260 263 264 264 265 271 273 279 296 327 329 322 324 329 326 322 307 284 269 262 256 249 232 238
nan 200 200 200 199 200 202 204 207 210 212 222 229 227 224 229 249 254 261 263 271 275 280 282 277 271 267 270 273 274 278 286 290 291 291 291 288 287 289 288 286 282 277 277 279 281 285 283 278 278 272 275 275 266 282 293 293 291 293 272 260 260 261 265 265 267 274 282 288 289 306 335 345 338 329 321 321 321 299 276 266 265 255 248 248
nan 199 199 201 201 201 201 201 205 207 210 219 223 226 231 232 239 256 266 271 271 273 275 271 270 273 272 273 274 274 279 280 281 285 290 288 290 292 292 289 292 286 279 277 280 279 283 280 280 277 278 283 279 270 278 293 293 294 298 283 264 264 263 262 263 268 274 282 289 295 295 314 333 337 327 315 313 321 314 287 278 269 262 250 248
nan 199 200 202 202 200 199 200 203 204 210 216 227 232 230 234 238 249 267 271 264 268 272 273 277 279 277 275 277 274 275 274 279 279 285 288 289 291 289 291 290 283 282 282 275 273 276 277 277 279 276 277 281 287 268 286 293 295 297 300 267 268 270 265 265 265 274 278 284 289 293 305 323 331 332 315 312 312 323 293 283 280 268 263 255
nan 200 198 199 200 200 200 200 202 204 208 211 212 228 234 233 236 245 260 263 261 268 272 275 277 279 273 272 271 275 274 271 276 282 285 286 287 291 290 287 286 282 282 282 279 272 271 273 275 274 272 272 270 276 281 281 290 294 298 299 295 275 280 267 265 266 272 277 279 281 289 312 317 324 326 325 318 320 304 295 302 274 258 249 251
202 200 199 197 197 200 201 199 202 204 207 210 214 219 233 234 234 239 252 257 257 263 267 272 275 277 273 271 269 271 271 271 276 278 277 280 286 288 285 283 284 281 278 278 276 275 268 269 274 274 274 270 267 265 277 290 286 296 294 302 305 290 281 265 264 260 263 268 273 280 285 301 314 319 324 326 329 322 303 308 293 279 264 258 258
202 199 197 198 197 196 197 198 202 202 205 213 217 216 228 235 235 241 249 253 256 262 265 269 273 273 271 269 267 265 269 271 273 275 275 277 285 286 282 280 281 279 277 276 275 274 273 269 264 267 268 265 264 263 263 277 293 293 299 305 312 312 274 274 264 257 257 255 257 263 274 304 309 314 320 325 322 324 321 303 298 292 284 276 279
201 200 198 197 196 196 196 197 202 203 208 218 214 216 227 233 236 241 247 251 255 260 263 266 269 268 268 267 268 268 268 273 274 272 273 274 279 283 281 278 278 278 274 274 272 270 270 267 262 260 263 264 262 259 255 255 260 280 286 304 310 307 291 266 262 254 255 260 264 261 263 270 281 289 285 281 284 297 304 302 292 289 284 284 285
200 199 198 200 200 200 197 196 198 205 211 214 214 215 230 236 240 243 247 249 253 257 260 261 263 264 263 262 266 266 269 273 274 274 276 276 275 278 278 276 277 278 276 273 270 267 265 266 265 264 262 260 261 257 250 247 249 251 250 259 263 260 268 262 249 251 261 259 263 262 262 267 264 285 285 285 285 284 283 281 282 286 286 287 290
201 201 201 201 202 201 199 196 198 205 212 215 217 219 228 242 244 250 250 250 252 255 258 258 259 258 257 258 258 265 268 268 272 275 280 284 278 279 279 277 276 274 273 270 267 266 266 268 268 266 262 259 257 251 248 248 253 254 254 254 254 254 254 254 253 255 261 261 258 256 260 260 260 260 259 269 276 279 291 294 294 292 291 291 293
201 202 202 202 202 202 200 198 197 206 213 218 218 222 223 237 243 244 247 250 250 253 253 253 253 252 253 254 255 255 259 262 264 268 268 264 272 281 276 268 268 271 266 269 268 265 268 267 262 263 263 260 253 247 243 249 261 269 266 256 254 256 255 255 269 273 259 257 257 259 260 261 260 266 269 277 285 289 297 301 302 298 296 293 286
201 203 203 201 201 203 202 201 203 210 216 219 222 223 227 227 231 237 240 245 247 248 250 251 250 252 253 253 254 259 260 260 262 260 256 252 242 242 235 254 266 245 240 239 253 264 270 267 264 265 263 262 255 245 246 262 272 278 283 287 282 280 277 266 271 282 270 259 260 256 260 265 271 276 285 289 293 292 297 300 297 293 293 290 288
199 200 201 200 200 200 202 205 210 217 218 221 223 225 227 231 229 227 230 238 246 246 245 245 247 249 251 252 254 257 259 256 258 257 259 256 251 241 237 235 236 243 243 241 240 240 244 254 257 253 237 232 239 253 257 266 274 280 284 278 275 276 278 279 278 267 255 257 257 259 261 267 278 281 286 292 290 291 293 293 290 289 293 286 286